This is the latest recevied weather packets stored in our database for station/object N4ASP-13. If no packets are shown the sender has not sent any weather packets the latest 1 day(s).
| Time | Temp. | Humidity | Pressure | Rain* | Wind** | Luminosity | Snow |
|---|---|---|---|---|---|---|---|
| 1778078693 | 15.56° C | 87% | 1013.4 hPa | 0 mm | - | 218 W/m² | - |
| 1778078573 | 15.56° C | 87% | 1013.4 hPa | 0 mm | - | 200 W/m² | - |
| 1778078452 | 15.56° C | 87% | 1013.5 hPa | 0 mm | - | 197 W/m² | - |
| 1778078332 | 15.56° C | 86% | 1013.4 hPa | 0 mm | - | 206 W/m² | - |
| 1778078152 | 15.56° C | 86% | 1013.5 hPa | 0 mm | - | 192 W/m² | - |
| 1778078032 | 15.56° C | 86% | 1013.5 hPa | 0 mm | - | 181 W/m² | - |
| 1778077791 | 15.56° C | 85% | 1013.5 hPa | 0 mm | - | 142 W/m² | - |
| 1778077733 | 15.56° C | 85% | 1013.4 hPa | 0 mm | - | 130 W/m² | - |
| 1778077612 | 15.56° C | 85% | 1013.4 hPa | 0 mm | - | 109 W/m² | - |
| 1778077253 | 15.56° C | 86% | 1013.5 hPa | 0 mm | - | 104 W/m² | - |
| 1778077007 | 15.56° C | 86% | 1013.5 hPa | 0 mm | - | 123 W/m² | - |
| 1778076528 | 15.56° C | 86% | 1013.4 hPa | 0 mm | - | 132 W/m² | - |
| 1778076228 | 15.56° C | 86% | 1013.4 hPa | 0 mm | - | 139 W/m² | - |
| 1778076107 | 15.56° C | 86% | 1013.3 hPa | 0 mm | - | 114 W/m² | - |
| 1778075927 | 15.56° C | 86% | 1013.4 hPa | 0 mm | - | 98 W/m² | - |
| 1778075687 | 15.56° C | 86% | 1013.4 hPa | 0 mm | - | 79 W/m² | - |
| 1778075568 | 15.56° C | 86% | 1013.5 hPa | 0 mm | - | 81 W/m² | - |
| 1778075509 | 15.56° C | 85% | 1013.7 hPa | 0 mm | - | 83 W/m² | - |
| 1778075387 | 15.56° C | 85% | 1013.7 hPa | 0 mm | - | 81 W/m² | - |
| 1778075328 | 15.56° C | 85% | 1013.8 hPa | 0 mm | - | 83 W/m² | - |
| 1778074724 | 15.56° C | 85% | 1013.4 hPa | 0 mm | - | 90 W/m² | - |
| 1778074603 | 15.56° C | 85% | 1013.2 hPa | 0 mm | - | 95 W/m² | - |
| 1778074484 | 15.56° C | 85% | 1013.2 hPa | 0 mm | - | 91 W/m² | - |
| 1778074423 | 15.56° C | 85% | 1013.3 hPa | 0 mm | - | 86 W/m² | - |
| 1778074297 | 15.56° C | 84% | 1013.4 hPa | 0 mm | - | 74 W/m² | - |
* Rain latest hour (hover to see other rain measurements)
** Current wind speed in m/s (hover to see current wind gust speed)